Rbgn^[z[y[W
メイン
   新天体発見情報
     Comet C/2020 Q1 (Borisov)
投稿するにはまず登録を

スレッド表示 | 新しいものから 前のトピック | 次のトピック | 下へ
投稿者 スレッド
佐藤裕久
投稿日時: 2020-8-26 11:18
モデレータ
登録日: 2005-6-12
居住地: 日本
投稿: 2676
オンライン
Comet C/2020 Q1 (Borisov)

Gennady Borisovの通報によると、8月17.96-17.98日UT、MARGO天文台 (Nauchnij近郊, クリミア)
の0.65-m f/1.5 アストログラフで得たCCD画像から、25"の拡散したコマのある新彗星を発見した。
0'.5の円形範囲で測定したこの彗星のR全光度は17.5等であった。
小惑星センターのPCCP webpageに公表後、吉本勝己氏 (山口県熊毛郡平生町, 8月18.8日UT, 60秒
露出8枚のスタック, 0.20-m f/8 Ritchey-Chretien 反射望遠鏡:16.3等で0'.4 のコマが見えるが
尾はない)や門田健一氏 (埼玉県上尾市, 8月19.7日, 0.25-m f/5 反射望遠鏡: 拡散状, 0'.8の
かすかなコマが見え全光度は15.8等, 中央集光があるが尾はない)ら、他のCCD位置観測者によって
彗星状と観測された。

彗星機能の報告は次の通り:

OC   Date        Reporter           Coma    Tail    PA          Exposures
P87  2020-08-18  K. Yoshimoto       24"                           8x60s
L07  2020-08-19  E. Guido           60"                         144x60s
I89  2020-08-19  E. Guido           60"                          30x50s
B96  2020-08-19  E. Bryssinck       48"                          40x90s
J04  2020-08-19  M. Micheli         40"
H06  2020-08-19  M. Suzuki          18"                           3x60s
A77  2020-08-19  F. Kugel            2'                             90s
H06  2020-08-19  R. Ligustri        20"                          11x60s
349  2020-08-19  K. Kadota          48"

発見位置は次のとおり、

     2020 UT             R.A. (2000) Decl.       Mag.   Observer
     Aug. 17.96858    5 35 05.20   +30 15 47.1   17.8   Borisov
          17.97627    5 35 04.95   +30 16 00.6   17.6     "
          17.98376    5 35 04.55   +30 16 17.3   17.6     "

MPCの放物線軌道要素、位置推算表は次のとおり、

Orbital elements:
    C/2020 Q1 (Borisov)                                                         
T 2020 Aug. 15.70990 TT                                 Rudenko                 
q   1.3160078            (2000.0)            P               Q                  
                   Peri.   10.90952     +0.71807036     +0.50793379             
                   Node    52.48551     +0.58483075     -0.81097995             
e   1.0            Incl.  143.14161     +0.37729029     +0.29037009             
From 42 observations 2020 Aug. 17-20.                                           
                                                                                
Ephemeris:
Date    TT    R. A. (2000) Decl.     Delta      r    Elong.  Phase   m1
2020 07 21    05 42 57.2 +18 39 22   2.1101  1.3710    32.8    23.7  17.0
...
2020 08 05    05 41 12.6 +23 50 22   1.7893  1.3258    47.1    34.1  16.5
...
2020 08 13    05 38 13.2 +27 29 44   1.5947  1.3166    55.4    39.3  16.2
...
2020 08 19    05 34 15.6 +30 53 55   1.4416  1.3169    62.0    42.7  16.0
2020 08 20    05 33 23.6 +31 32 14   1.4158  1.3176    63.2    43.3  16.0
2020 08 21    05 32 27.3 +32 11 57   1.3899  1.3184    64.4    43.8  15.9
...
2020 08 27    05 24 52.4 +36 44 44   1.2343  1.3268    71.7    46.3  15.7
...
2020 09 04    05 05 57.9 +44 47 54   1.0344  1.3473    82.5    47.9  15.4
...
2020 09 19    02 41 01.8 +66 05 26   0.7578  1.4117   105.6    43.3  14.9

(MPEC 2020-Q109、CBET 4836)

スレッド表示 | 新しいものから 前のトピック | 次のトピック | トップ

投稿するにはまず登録を
 
© 1999 Tsutomu Seki.